Station Historical Data
Daily Summary for March 13, 2011 Units:  English    Metric   Both
« Previous Day
Next Day »
Daily Weekly Monthly Yearly Custom
  High: Low: Average:
Temperature: 70.1 °F 49.1 °F 59.7 °F
Dew Point: 56.2 °F 40.4 °F 49.1 °F
Humidity: 81% 58% 68%
Wind Speed: 9.0mph 0.0mph 2.4mph
Wind Gust: 12.0mph - -
Wind- - South
Pressure: 30.20 in 30.10 in -
Precipitation: 0.00 in    
Historical Graphs
 
 
Tabular Data for March 13, 2011
Time Temperature Dew Point Pressure Wind Wind Speed Wind Gust Humidity Rainfall Rate (Hourly) Conditions
00:00 56.3 °F 41.7 °F 30.11 in SE 1.0 mph 2.0 mph 58% 0.00 in
00:01 56.2 °F 41.6 °F 30.11 in SE 2.0 mph 2.0 mph 58% 0.00 in
00:05 56.1 °F 41.5 °F 30.11 in SSE 2.0 mph 2.0 mph 58% 0.00 in
00:06 56.1 °F 42.0 °F 30.11 in SSE 1.0 mph 2.0 mph 59% 0.00 in
00:07 56.1 °F 42.0 °F 30.11 in SSE 1.0 mph 2.0 mph 59% 0.00 in
00:11 55.9 °F 41.8 °F 30.11 in SSE 2.0 mph 2.0 mph 59% 0.00 in
00:12 55.9 °F 41.8 °F 30.11 in South 2.0 mph 2.0 mph 59% 0.00 in
00:16 56.0 °F 41.9 °F 30.11 in SSE 2.0 mph 2.0 mph 59% 0.00 in
00:17 55.9 °F 41.8 °F 30.11 in SSE 2.0 mph 2.0 mph 59% 0.00 in
00:18 55.9 °F 41.8 °F 30.11 in SSE 2.0 mph 2.0 mph 59% 0.00 in
00:22 55.7 °F 41.6 °F 30.11 in SSE 2.0 mph 2.0 mph 59% 0.00 in
00:23 55.7 °F 41.6 °F 30.11 in SSE 1.0 mph 2.0 mph 59% 0.00 in
00:28 55.7 °F 41.6 °F 30.11 in South 2.0 mph 2.0 mph 59% 0.00 in
00:33 55.7 °F 41.6 °F 30.11 in SSE 1.0 mph 2.0 mph 59% 0.00 in
00:34 55.7 °F 41.6 °F 30.11 in SSE 1.0 mph 2.0 mph 59% 0.00 in
00:38 55.7 °F 41.6 °F 30.11 in SE 1.0 mph 3.0 mph 59% 0.00 in
00:40 55.7 °F 41.6 °F 30.11 in SE 1.0 mph 2.0 mph 59% 0.00 in
00:43 55.4 °F 41.8 °F 30.11 in SSE 1.0 mph 2.0 mph 60% 0.00 in
00:44 55.4 °F 41.8 °F 30.11 in SSE 1.0 mph 2.0 mph 60% 0.00 in
00:48 55.1 °F 41.5 °F 30.11 in SSE 1.0 mph 2.0 mph 60% 0.00 in
00:53 55.4 °F 41.3 °F 30.11 in SSE 2.0 mph 3.0 mph 59% 0.00 in
00:54 55.4 °F 41.3 °F 30.11 in South 2.0 mph 3.0 mph 59% 0.00 in
00:57 55.6 °F 41.5 °F 30.11 in SE 2.0 mph 3.0 mph 59% 0.00 in
00:58 55.6 °F 41.5 °F 30.11 in SSE 2.0 mph 3.0 mph 59% 0.00 in
00:59 55.6 °F 41.5 °F 30.11 in SSE 2.0 mph 2.0 mph 59% 0.00 in
01:02 55.4 °F 41.3 °F 30.11 in South 4.0 mph 4.0 mph 59% 0.00 in
01:07 55.2 °F 41.6 °F 30.11 in SSE 2.0 mph 3.0 mph 60% 0.00 in
01:08 55.2 °F 41.6 °F 30.11 in SSE 2.0 mph 3.0 mph 60% 0.00 in
01:12 55.0 °F 41.4 °F 30.11 in SSE 2.0 mph 3.0 mph 60% 0.00 in
01:17 55.0 °F 41.4 °F 30.11 in SSE 3.0 mph 3.0 mph 60% 0.00 in
01:18 55.0 °F 41.4 °F 30.11 in SSE 2.0 mph 3.0 mph 60% 0.00 in
01:22 54.9 °F 41.3 °F 30.11 in SSE 2.0 mph 2.0 mph 60% 0.00 in
01:23 54.9 °F 41.3 °F 30.11 in SSE 2.0 mph 2.0 mph 60% 0.00 in
01:28 55.0 °F 41.4 °F 30.12 in SSE 3.0 mph 3.0 mph 60% 0.00 in
01:29 55.0 °F 41.4 °F 30.12 in SSE 2.0 mph 3.0 mph 60% 0.00 in
01:33 55.1 °F 41.0 °F 30.11 in SSE 2.0 mph 4.0 mph 59% 0.00 in
01:34 55.1 °F 41.5 °F 30.11 in SSE 4.0 mph 4.0 mph 60% 0.00 in
01:39 54.9 °F 40.9 °F 30.11 in SSE 3.0 mph 3.0 mph 59% 0.00 in
01:40 54.9 °F 41.3 °F 30.11 in SSE 3.0 mph 3.0 mph 60% 0.00 in
01:44 54.6 °F 41.0 °F 30.11 in SSE 3.0 mph 3.0 mph 60% 0.00 in
01:45 54.6 °F 41.0 °F 30.11 in SSE 3.0 mph 3.0 mph 60% 0.00 in
01:50 54.6 °F 41.0 °F 30.11 in SSE 3.0 mph 5.0 mph 60% 0.00 in
01:52 54.6 °F 41.0 °F 30.11 in SE 2.0 mph 5.0 mph 60% 0.00 in
01:54 54.6 °F 41.0 °F 30.11 in SSE 2.0 mph 4.0 mph 60% 0.00 in
01:55 54.6 °F 41.0 °F 30.11 in SSE 3.0 mph 4.0 mph 60% 0.00 in
01:57 54.6 °F 41.0 °F 30.11 in SSE 3.0 mph 4.0 mph 60% 0.00 in
01:59 54.6 °F 41.0 °F 30.11 in South 2.0 mph 4.0 mph 60% 0.00 in
03:01 54.6 °F 41.0 °F 30.11 in SSE 2.0 mph 3.0 mph 60% 0.00 in
03:04 54.5 °F 40.9 °F 30.11 in SSE 3.0 mph 3.0 mph 60% 0.00 in
03:07 54.5 °F 40.9 °F 30.11 in SE 2.0 mph 3.0 mph 60% 0.00 in
03:09 54.5 °F 40.9 °F 30.12 in SSE 2.0 mph 2.0 mph 60% 0.00 in
03:12 54.5 °F 40.9 °F 30.12 in SSE 1.0 mph 2.0 mph 60% 0.00 in
03:14 54.5 °F 40.9 °F 30.12 in South 1.0 mph 2.0 mph 60% 0.00 in
03:17 54.4 °F 40.8 °F 30.12 in South 1.0 mph 2.0 mph 60% 0.00 in
03:18 54.3 °F 40.7 °F 30.12 in South 1.0 mph 2.0 mph 60% 0.00 in
03:22 54.3 °F 40.7 °F 30.12 in South 2.0 mph 2.0 mph 60% 0.00 in
03:27 54.1 °F 40.5 °F 30.12 in SSE 2.0 mph 3.0 mph 60% 0.00 in
03:28 54.1 °F 40.5 °F 30.12 in SE 2.0 mph 3.0 mph 60% 0.00 in
03:33 53.9 °F 40.8 °F 30.12 in SSE 2.0 mph 3.0 mph 61% 0.00 in
03:34 53.9 °F 40.8 °F 30.12 in SSE 2.0 mph 3.0 mph 61% 0.00 in
03:38 53.9 °F 40.8 °F 30.11 in SSE 3.0 mph 3.0 mph 61% 0.00 in
03:43 54.1 °F 41.0 °F 30.12 in SSW 4.0 mph 4.0 mph 61% 0.00 in
03:44 54.2 °F 41.1 °F 30.11 in SSE 2.0 mph 4.0 mph 61% 0.00 in
03:48 54.2 °F 41.1 °F 30.11 in SSE 3.0 mph 5.0 mph 61% 0.00 in
03:49 54.2 °F 41.1 °F 30.11 in SE 3.0 mph 5.0 mph 61% 0.00 in
03:54 54.1 °F 41.0 °F 30.11 in South 2.0 mph 4.0 mph 61% 0.00 in
03:55 54.1 °F 41.0 °F 30.11 in SSE 2.0 mph 4.0 mph 61% 0.00 in
03:59 54.0 °F 40.9 °F 30.11 in South 2.0 mph 4.0 mph 61% 0.00 in
04:04 54.1 °F 41.0 °F 30.11 in South 1.0 mph 4.0 mph 61% 0.00 in
04:09 53.8 °F 40.7 °F 30.11 in SW 1.0 mph 1.0 mph 61% 0.00 in
04:10 53.8 °F 40.7 °F 30.11 in SW 1.0 mph 1.0 mph 61% 0.00 in
04:15 53.4 °F 40.7 °F 30.11 in WSW 2.0 mph 2.0 mph 62% 0.00 in
04:20 53.4 °F 41.1 °F 30.11 in WSW 2.0 mph 3.0 mph 63% 0.00 in
04:25 53.3 °F 41.0 °F 30.11 in WSW 1.0 mph 2.0 mph 63% 0.00 in
04:26 53.3 °F 41.0 °F 30.11 in WSW 1.0 mph 2.0 mph 63% 0.00 in
04:30 53.2 °F 41.0 °F 30.11 in WSW 1.0 mph 2.0 mph 63% 0.00 in
04:31 53.2 °F 41.0 °F 30.11 in WSW 1.0 mph 2.0 mph 63% 0.00 in
04:32 53.0 °F 40.8 °F 30.11 in WSW 1.0 mph 2.0 mph 63% 0.00 in
04:35 52.6 °F 40.8 °F 30.11 in WSW 1.0 mph 1.0 mph 64% 0.00 in
04:36 52.5 °F 40.7 °F 30.11 in WSW 1.0 mph 1.0 mph 64% 0.00 in
04:37 52.4 °F 40.6 °F 30.11 in WSW 1.0 mph 1.0 mph 64% 0.00 in
04:42 52.0 °F 40.6 °F 30.11 in Calm   1.0 mph 65% 0.00 in
04:47 51.9 °F 40.5 °F 30.11 in Calm   1.0 mph 65% 0.00 in
04:48 51.9 °F 40.5 °F 30.11 in Calm   1.0 mph 65% 0.00 in
04:53 51.9 °F 40.5 °F 30.11 in Calm   1.0 mph 65% 0.00 in
04:54 51.8 °F 40.4 °F 30.11 in WSW 1.0 mph 1.0 mph 65% 0.00 in
04:58 51.7 °F 40.7 °F 30.11 in SSW 1.0 mph 1.0 mph 66% 0.00 in
05:03 51.7 °F 40.7 °F 30.11 in South 2.0 mph 2.0 mph 66% 0.00 in
05:08 51.8 °F 40.8 °F 30.11 in SE 2.0 mph 2.0 mph 66% 0.00 in
05:09 51.8 °F 40.8 °F 30.11 in SE 2.0 mph 2.0 mph 66% 0.00 in
05:14 51.8 °F 41.2 °F 30.10 in SE 1.0 mph 2.0 mph 67% 0.00 in
05:19 51.7 °F 41.1 °F 30.11 in SE 2.0 mph 2.0 mph 67% 0.00 in
05:24 51.6 °F 41.4 °F 30.10 in ESE 2.0 mph 2.0 mph 68% 0.00 in
05:30 51.7 °F 41.5 °F 30.11 in SE 1.0 mph 2.0 mph 68% 0.00 in
05:35 51.7 °F 41.5 °F 30.11 in South 1.0 mph 3.0 mph 68% 0.00 in
05:40 51.2 °F 41.4 °F 30.11 in SW 2.0 mph 2.0 mph 69% 0.00 in
05:45 50.9 °F 41.5 °F 30.11 in SSW 1.0 mph 3.0 mph 70% 0.00 in
05:50 51.1 °F 41.7 °F 30.11 in SSW 2.0 mph 4.0 mph 70% 0.00 in
05:52 51.2 °F 42.1 °F 30.11 in SSW 2.0 mph 4.0 mph 71% 0.00 in
05:55 51.4 °F 42.0 °F 30.12 in SSW 3.0 mph 3.0 mph 70% 0.00 in
05:56 51.4 °F 42.0 °F 30.12 in SSW 2.0 mph 4.0 mph 70% 0.00 in
05:57 51.6 °F 42.2 °F 30.12 in SSW 2.0 mph 4.0 mph 70% 0.00 in
06:02 52.0 °F 42.5 °F 30.12 in SSW 3.0 mph 3.0 mph 70% 0.00 in
06:03 52.1 °F 42.6 °F 30.12 in SSE 1.0 mph 3.0 mph 70% 0.00 in
06:08 52.3 °F 42.5 °F 30.12 in South 3.0 mph 4.0 mph 69% 0.00 in
06:09 52.4 °F 42.5 °F 30.12 in South 3.0 mph 4.0 mph 69% 0.00 in
06:13 52.6 °F 42.3 °F 30.12 in SE 3.0 mph 5.0 mph 68% 0.00 in
06:14 52.6 °F 42.3 °F 30.12 in SSW 6.0 mph 6.0 mph 68% 0.00 in
06:18 52.8 °F 42.5 °F 30.12 in South 3.0 mph 6.0 mph 68% 0.00 in
06:19 52.8 °F 42.5 °F 30.13 in SSW 2.0 mph 5.0 mph 68% 0.00 in
06:23 52.8 °F 42.5 °F 30.13 in SSW 2.0 mph 4.0 mph 68% 0.00 in
06:24 52.7 °F 42.5 °F 30.13 in South 2.0 mph 4.0 mph 68% 0.00 in
06:25 52.7 °F 42.5 °F 30.13 in SW 2.0 mph 4.0 mph 68% 0.00 in
06:29 52.4 °F 42.5 °F 30.13 in SSW 2.0 mph 3.0 mph 69% 0.00 in
06:30 52.3 °F 42.5 °F 30.13 in SSW 3.0 mph 3.0 mph 69% 0.00 in
06:34 52.2 °F 42.3 °F 30.13 in SSW 1.0 mph 3.0 mph 69% 0.00 in
06:35 52.1 °F 42.2 °F 30.13 in SSW 1.0 mph 3.0 mph 69% 0.00 in
06:36 52.1 °F 42.2 °F 30.13 in SSW 2.0 mph 3.0 mph 69% 0.00 in
06:40 51.8 °F 42.3 °F 30.13 in SW 1.0 mph 2.0 mph 70% 0.00 in
06:41 51.8 °F 42.3 °F 30.13 in Calm   2.0 mph 70% 0.00 in
06:46 51.5 °F 42.0 °F 30.14 in SSE 2.0 mph 2.0 mph 70% 0.00 in
06:51 51.2 °F 42.1 °F 30.14 in Calm     71% 0.00 in
06:52 51.2 °F 42.1 °F 30.14 in Calm     71% 0.00 in
06:57 50.8 °F 41.8 °F 30.14 in Calm   1.0 mph 71% 0.00 in
06:58 50.8 °F 41.8 °F 30.14 in Calm   1.0 mph 71% 0.00 in
07:02 50.6 °F 41.9 °F 30.14 in Calm     72% 0.00 in
07:07 50.3 °F 41.6 °F 30.14 in South 1.0 mph 1.0 mph 72% 0.00 in
07:12 50.2 °F 41.9 °F 30.14 in SSE 1.0 mph 1.0 mph 73% 0.00 in
07:14 50.2 °F 41.9 °F 30.15 in Calm   1.0 mph 73% 0.00 in
07:18 50.4 °F 42.4 °F 30.15 in SSE 1.0 mph 1.0 mph 74% 0.00 in
07:19 50.4 °F 42.4 °F 30.15 in SSE 1.0 mph 1.0 mph 74% 0.00 in
07:23 50.5 °F 42.5 °F 30.15 in SE 2.0 mph 2.0 mph 74% 0.00 in
07:24 50.6 °F 42.6 °F 30.15 in SSE 1.0 mph 2.0 mph 74% 0.00 in
07:28 50.7 °F 42.7 °F 30.15 in SSE 1.0 mph 2.0 mph 74% 0.00 in
07:29 50.8 °F 42.5 °F 30.15 in SSE 1.0 mph 2.0 mph 73% 0.00 in
07:33 50.8 °F 42.5 °F 30.15 in SSE 2.0 mph 2.0 mph 73% 0.00 in
07:34 50.8 °F 42.5 °F 30.15 in SSE 2.0 mph 2.0 mph 73% 0.00 in
07:35 50.8 °F 42.8 °F 30.14 in SSE 2.0 mph 2.0 mph 74% 0.00 in
07:38 50.8 °F 42.8 °F 30.15 in SSE 2.0 mph 3.0 mph 74% 0.00 in
07:39 50.8 °F 42.8 °F 30.15 in SSE 2.0 mph 3.0 mph 74% 0.00 in
07:43 50.8 °F 42.8 °F 30.15 in SSE 2.0 mph 2.0 mph 74% 0.00 in
07:48 50.6 °F 42.6 °F 30.15 in SSE 1.0 mph 2.0 mph 74% 0.00 in
07:49 50.5 °F 42.9 °F 30.15 in SSE 1.0 mph 2.0 mph 75% 0.00 in
07:53 50.3 °F 42.7 °F 30.15 in Calm   1.0 mph 75% 0.00 in
07:54 50.3 °F 42.7 °F 30.15 in Calm     75% 0.00 in
07:55 50.3 °F 42.7 °F 30.15 in Calm     75% 0.00 in
07:58 50.2 °F 42.9 °F 30.15 in SSE 1.0 mph 1.0 mph 76% 0.00 in
07:59 50.3 °F 43.0 °F 30.15 in SSE 1.0 mph 1.0 mph 76% 0.00 in
08:04 50.3 °F 43.0 °F 30.15 in ENE 2.0 mph 2.0 mph 76% 0.00 in
08:09 50.1 °F 42.8 °F 30.15 in ENE 2.0 mph 2.0 mph 76% 0.00 in
08:10 50.0 °F 42.7 °F 30.16 in ENE 2.0 mph 2.0 mph 76% 0.00 in
08:14 49.9 °F 42.7 °F 30.16 in ENE 1.0 mph 2.0 mph 76% 0.00 in
08:15 49.8 °F 42.5 °F 30.16 in ENE 1.0 mph 2.0 mph 76% 0.00 in
08:20 49.1 °F 42.5 °F 30.16 in Calm     78% 0.00 in
08:25 49.3 °F 43.1 °F 30.16 in ENE 1.0 mph 1.0 mph 79% 0.00 in
08:26 49.4 °F 43.2 °F 30.16 in ENE 1.0 mph 1.0 mph 79% 0.00 in
08:30 50.0 °F 43.4 °F 30.16 in ENE 1.0 mph 1.0 mph 78% 0.00 in
08:31 50.2 °F 43.3 °F 30.16 in ENE 1.0 mph 1.0 mph 77% 0.00 in
08:35 50.4 °F 43.5 °F 30.16 in East 1.0 mph 1.0 mph 77% 0.00 in
08:36 50.5 °F 43.6 °F 30.16 in East 1.0 mph 1.0 mph 77% 0.00 in
08:41 50.3 °F 43.7 °F 30.16 in ESE 1.0 mph 1.0 mph 78% 0.00 in
08:46 50.2 °F 43.6 °F 30.16 in SE 2.0 mph 2.0 mph 78% 0.00 in
08:47 50.2 °F 44.0 °F 30.16 in SE 1.0 mph 2.0 mph 79% 0.00 in
08:51 50.3 °F 44.0 °F 30.16 in SE 1.0 mph 2.0 mph 79% 0.00 in
08:52 50.3 °F 44.0 °F 30.16 in SE 1.0 mph 1.0 mph 79% 0.00 in
08:53 50.3 °F 44.0 °F 30.16 in SE 1.0 mph 1.0 mph 79% 0.00 in
08:57 50.4 °F 44.1 °F 30.16 in SE 1.0 mph 1.0 mph 79% 0.00 in
08:58 50.4 °F 44.1 °F 30.16 in SE 2.0 mph 2.0 mph 79% 0.00 in
08:59 50.4 °F 44.1 °F 30.16 in SE 2.0 mph 2.0 mph 79% 0.00 in
09:03 50.5 °F 44.9 °F 30.17 in SE 1.0 mph 1.0 mph 81% 0.00 in
09:08 50.9 °F 44.6 °F 30.17 in SSE 3.0 mph 4.0 mph 79% 0.00 in
09:13 51.4 °F 45.1 °F 30.17 in SSE 3.0 mph 3.0 mph 79% 0.00 in
09:14 51.4 °F 45.1 °F 30.17 in SSE 2.0 mph 3.0 mph 79% 0.00 in
09:18 51.8 °F 45.5 °F 30.17 in SSE 3.0 mph 4.0 mph 79% 0.00 in
09:19 51.8 °F 45.5 °F 30.17 in SSE 2.0 mph 4.0 mph 79% 0.00 in
09:24 52.2 °F 45.6 °F 30.17 in SSE 2.0 mph 3.0 mph 78% 0.00 in
09:29 52.5 °F 45.8 °F 30.17 in Calm   2.0 mph 78% 0.00 in
09:30 52.5 °F 45.8 °F 30.17 in Calm   2.0 mph 78% 0.00 in
09:31 52.5 °F 46.2 °F 30.17 in South 1.0 mph 2.0 mph 79% 0.00 in
09:33 52.6 °F 46.0 °F 30.17 in SE 1.0 mph 2.0 mph 78% 0.00 in
09:34 52.7 °F 46.4 °F 30.17 in SSE 1.0 mph 2.0 mph 79% 0.00 in
09:35 52.7 °F 46.4 °F 30.17 in SSE 1.0 mph 2.0 mph 79% 0.00 in
09:38 52.9 °F 46.2 °F 30.17 in SSE 2.0 mph 2.0 mph 78% 0.00 in
09:40 53.0 °F 46.7 °F 30.17 in South 1.0 mph 2.0 mph 79% 0.00 in
09:43 53.2 °F 46.5 °F 30.17 in SSW 1.0 mph 3.0 mph 78% 0.00 in
09:48 53.6 °F 46.6 °F 30.17 in South 1.0 mph 3.0 mph 77% 0.00 in
09:53 53.9 °F 46.9 °F 30.18 in South 2.0 mph 2.0 mph 77% 0.00 in
09:54 53.9 °F 46.9 °F 30.18 in South 2.0 mph 2.0 mph 77% 0.00 in
09:55 54.0 °F 46.6 °F 30.18 in SW 1.0 mph 2.0 mph 76% 0.00 in
09:59 54.2 °F 46.8 °F 30.18 in SE 1.0 mph 2.0 mph 76% 0.00 in
10:01 54.3 °F 47.2 °F 30.18 in SSE 1.0 mph 2.0 mph 77% 0.00 in
10:04 54.4 °F 47.3 °F 30.18 in SE 1.0 mph 2.0 mph 77% 0.00 in
10:06 54.6 °F 47.5 °F 30.18 in SSE 1.0 mph 2.0 mph 77% 0.00 in
10:09 54.7 °F 47.3 °F 30.18 in SSE 3.0 mph 4.0 mph 76% 0.00 in
10:14 55.0 °F 47.6 °F 30.18 in South 2.0 mph 3.0 mph 76% 0.00 in
10:15 55.0 °F 47.6 °F 30.18 in SSE 2.0 mph 3.0 mph 76% 0.00 in
10:17 55.3 °F 48.2 °F 30.19 in SW 2.0 mph 2.0 mph 77% 0.00 in
10:19 55.4 °F 48.0 °F 30.19 in SW 3.0 mph 3.0 mph 76% 0.00 in
10:22 55.5 °F 48.1 °F 30.19 in West 2.0 mph 4.0 mph 76% 0.00 in
10:24 55.5 °F 47.7 °F 30.19 in West 3.0 mph 4.0 mph 75% 0.00 in
10:27 55.4 °F 47.6 °F 30.19 in SW 3.0 mph 5.0 mph 75% 0.00 in
10:30 55.4 °F 48.0 °F 30.19 in SW 2.0 mph 4.0 mph 76% 0.00 in
10:33 55.6 °F 48.2 °F 30.19 in SW 3.0 mph 4.0 mph 76% 0.00 in
10:35 55.7 °F 48.3 °F 30.19 in WSW 2.0 mph 4.0 mph 76% 0.00 in
10:36 55.7 °F 48.3 °F 30.19 in WSW 2.0 mph 4.0 mph 76% 0.00 in
10:38 55.8 °F 48.4 °F 30.19 in WSW 2.0 mph 3.0 mph 76% 0.00 in
10:41 55.9 °F 48.1 °F 30.19 in West 2.0 mph 4.0 mph 75% 0.00 in
10:43 56.0 °F 48.5 °F 30.19 in West 3.0 mph 4.0 mph 76% 0.00 in
10:44 56.0 °F 48.5 °F 30.19 in West 3.0 mph 4.0 mph 76% 0.00 in
10:47 56.1 °F 49.0 °F 30.20 in West 2.0 mph 4.0 mph 77% 0.00 in
10:49 56.2 °F 48.4 °F 30.20 in West 2.0 mph 5.0 mph 75% 0.00 in
10:54 56.3 °F 48.5 °F 30.20 in WNW 2.0 mph 5.0 mph 75% 0.00 in
10:55 56.3 °F 48.5 °F 30.20 in WSW 3.0 mph 5.0 mph 75% 0.00 in
10:57 56.5 °F 49.0 °F 30.20 in West 4.0 mph 6.0 mph 76% 0.00 in
11:00 56.8 °F 49.3 °F 30.20 in WNW 4.0 mph 5.0 mph 76% 0.00 in
11:02 56.9 °F 49.1 °F 30.20 in SSW 2.0 mph 7.0 mph 75% 0.00 in
11:05 57.0 °F 49.2 °F 30.20 in WSW 3.0 mph 6.0 mph 75% 0.00 in
11:06 57.0 °F 49.2 °F 30.20 in WSW 3.0 mph 6.0 mph 75% 0.00 in
11:07 57.0 °F 49.2 °F 30.20 in West 4.0 mph 6.0 mph 75% 0.00 in
11:10 57.1 °F 50.0 °F 30.20 in WSW 5.0 mph 6.0 mph 77% 0.00 in
11:12 57.2 °F 49.7 °F 30.20 in WSW 2.0 mph 6.0 mph 76% 0.00 in
11:15 57.4 °F 50.3 °F 30.20 in West 3.0 mph 5.0 mph 77% 0.00 in
11:17 57.6 °F 50.5 °F 30.20 in West 6.0 mph 8.0 mph 77% 0.00 in
11:20 57.8 °F 50.3 °F 30.20 in SSW 4.0 mph 7.0 mph 76% 0.00 in
11:23 57.8 °F 50.3 °F 30.20 in SW 6.0 mph 6.0 mph 76% 0.00 in
11:26 58.0 °F 50.5 °F 30.20 in WSW 4.0 mph 7.0 mph 76% 0.00 in
11:28 58.1 °F 50.6 °F 30.20 in SW 7.0 mph 8.0 mph 76% 0.00 in
11:31 58.2 °F 51.0 °F 30.20 in WSW 3.0 mph 7.0 mph 77% 0.00 in
11:33 58.4 °F 51.2 °F 30.20 in West 3.0 mph 6.0 mph 77% 0.00 in
11:34 58.4 °F 51.2 °F 30.20 in West 4.0 mph 6.0 mph 77% 0.00 in
11:35 58.7 °F 51.9 °F 30.20 in WNW 5.0 mph 6.0 mph 78% 0.00 in
11:36 58.8 °F 51.3 °F 30.20 in WSW 6.0 mph 7.0 mph 76% 0.00 in
11:39 58.9 °F 51.4 °F 30.20 in West 5.0 mph 7.0 mph 76% 0.00 in
11:44 58.9 °F 51.4 °F 30.20 in WSW 9.0 mph 9.0 mph 76% 0.00 in
11:45 58.8 °F 51.3 °F 30.20 in WSW 5.0 mph 9.0 mph 76% 0.00 in
11:49 59.1 °F 51.5 °F 30.20 in WSW 6.0 mph 7.0 mph 76% 0.00 in
11:50 59.1 °F 51.5 °F 30.20 in WNW 6.0 mph 7.0 mph 76% 0.00 in
11:55 59.0 °F 51.5 °F 30.20 in SW 5.0 mph 10.0 mph 76% 0.00 in
11:56 59.0 °F 51.1 °F 30.20 in WSW 7.0 mph 10.0 mph 75% 0.00 in
11:58 59.0 °F 51.5 °F 30.20 in WSW 4.0 mph 8.0 mph 76% 0.00 in
12:00 59.0 °F 51.1 °F 30.20 in WSW 6.0 mph 9.0 mph 75% 0.00 in
12:01 59.1 °F 51.2 °F 30.20 in WSW 7.0 mph 9.0 mph 75% 0.00 in
12:04 59.1 °F 51.2 °F 30.19 in West 6.0 mph 9.0 mph 75% 0.00 in
12:06 59.2 °F 51.7 °F 30.19 in WSW 5.0 mph 9.0 mph 76% 0.00 in
12:09 59.5 °F 51.6 °F 30.19 in SW 4.0 mph 8.0 mph 75% 0.00 in
12:12 59.5 °F 51.2 °F 30.19 in West 7.0 mph 8.0 mph 74% 0.00 in
12:14 59.6 °F 51.7 °F 30.19 in WSW 7.0 mph 12.0 mph 75% 0.00 in
12:15 59.6 °F 51.7 °F 30.19 in West 7.0 mph 12.0 mph 75% 0.00 in
12:17 59.7 °F 52.1 °F 30.19 in SW 6.0 mph 8.0 mph 76% 0.00 in
12:20 60.1 °F 52.5 °F 30.19 in WSW 4.0 mph 6.0 mph 76% 0.00 in
12:25 60.7 °F 52.0 °F 30.19 in West 6.0 mph 10.0 mph 73% 0.00 in
12:26 60.7 °F 52.4 °F 30.19 in SW 8.0 mph 10.0 mph 74% 0.00 in
12:30 60.7 °F 52.4 °F 30.19 in SSW 4.0 mph 8.0 mph 74% 0.00 in
12:31 60.7 °F 52.0 °F 30.19 in SW 5.0 mph 8.0 mph 73% 0.00 in
12:36 60.9 °F 52.2 °F 30.19 in WSW 3.0 mph 7.0 mph 73% 0.00 in
12:37 60.9 °F 51.8 °F 30.19 in West 4.0 mph 7.0 mph 72% 0.00 in
12:41 61.2 °F 52.1 °F 30.19 in WSW 6.0 mph 7.0 mph 72% 0.00 in
12:42 61.2 °F 52.1 °F 30.19 in West 5.0 mph 7.0 mph 72% 0.00 in
12:46 61.4 °F 52.7 °F 30.19 in West 5.0 mph 7.0 mph 73% 0.00 in
12:47 61.5 °F 52.8 °F 30.19 in SW 4.0 mph 7.0 mph 73% 0.00 in
12:48 61.5 °F 52.4 °F 30.19 in WSW 3.0 mph 7.0 mph 72% 0.00 in
12:53 61.8 °F 52.7 °F 30.19 in WSW 3.0 mph 8.0 mph 72% 0.00 in
12:54 61.8 °F 52.3 °F 30.19 in SW 3.0 mph 7.0 mph 71% 0.00 in
12:58 62.1 °F 52.6 °F 30.19 in SSW 5.0 mph 8.0 mph 71% 0.00 in
13:03 62.6 °F 52.7 °F 30.19 in West 5.0 mph 7.0 mph 70% 0.00 in
13:04 62.6 °F 52.7 °F 30.19 in West 6.0 mph 7.0 mph 70% 0.00 in
13:09 62.8 °F 52.9 °F 30.19 in West 4.0 mph 7.0 mph 70% 0.00 in
13:10 62.8 °F 52.9 °F 30.19 in West 5.0 mph 7.0 mph 70% 0.00 in
13:14 62.8 °F 52.9 °F 30.19 in West 3.0 mph 8.0 mph 70% 0.00 in
13:16 62.9 °F 53.4 °F 30.19 in SW 6.0 mph 6.0 mph 71% 0.00 in
13:19 63.2 °F 52.9 °F 30.19 in SW 1.0 mph 5.0 mph 69% 0.00 in
13:21 63.3 °F 53.4 °F 30.19 in SW 3.0 mph 6.0 mph 70% 0.00 in
13:26 64.0 °F 54.0 °F 30.19 in South 2.0 mph 5.0 mph 70% 0.00 in
13:28 64.3 °F 53.5 °F 30.18 in SSW 3.0 mph 5.0 mph 68% 0.00 in
13:31 64.4 °F 53.2 °F 30.18 in West 5.0 mph 6.0 mph 67% 0.00 in
13:32 64.3 °F 53.1 °F 30.18 in SW 5.0 mph 6.0 mph 67% 0.00 in
13:33 64.3 °F 53.5 °F 30.18 in West 3.0 mph 6.0 mph 68% 0.00 in
13:37 64.4 °F 53.2 °F 30.18 in West 4.0 mph 5.0 mph 67% 0.00 in
13:42 64.7 °F 53.5 °F 30.18 in SW 2.0 mph 7.0 mph 67% 0.00 in
13:43 64.8 °F 53.6 °F 30.18 in West 5.0 mph 7.0 mph 67% 0.00 in
13:44 64.8 °F 53.6 °F 30.18 in WSW 3.0 mph 7.0 mph 67% 0.00 in
13:48 65.2 °F 53.6 °F 30.18 in SW 5.0 mph 5.0 mph 66% 0.00 in
13:49 65.2 °F 53.6 °F 30.18 in ESE 1.0 mph 5.0 mph 66% 0.00 in
13:54 65.6 °F 53.5 °F 30.18 in SSW 3.0 mph 5.0 mph 65% 0.00 in
13:59 66.1 °F 54.4 °F 30.18 in SE 2.0 mph 3.0 mph 66% 0.00 in
14:04 66.8 °F 54.7 °F 30.18 in West 5.0 mph 5.0 mph 65% 0.00 in
14:05 66.8 °F 53.8 °F 30.18 in West 3.0 mph 5.0 mph 63% 0.00 in
14:09 67.1 °F 55.0 °F 30.17 in West 3.0 mph 3.0 mph 65% 0.00 in
14:10 67.1 °F 55.0 °F 30.17 in SW 6.0 mph 6.0 mph 65% 0.00 in
14:15 67.0 °F 54.4 °F 30.17 in SSE 1.0 mph 7.0 mph 64% 0.00 in
14:16 67.1 °F 54.5 °F 30.17 in NNE 1.0 mph 7.0 mph 64% 0.00 in
14:20 67.7 °F 54.7 °F 30.17 in West 2.0 mph 3.0 mph 63% 0.00 in
14:21 67.7 °F 54.2 °F 30.17 in SW 6.0 mph 6.0 mph 62% 0.00 in
14:26 67.2 °F 54.2 °F 30.17 in WNW 3.0 mph 5.0 mph 63% 0.00 in
14:27 67.1 °F 54.1 °F 30.17 in SW 1.0 mph 5.0 mph 63% 0.00 in
14:31 67.2 °F 53.8 °F 30.17 in WSW 1.0 mph 6.0 mph 62% 0.00 in
14:32 67.2 °F 53.8 °F 30.17 in WSW 2.0 mph 6.0 mph 62% 0.00 in
14:33 67.3 °F 53.8 °F 30.17 in WSW 3.0 mph 6.0 mph 62% 0.00 in
14:36 67.5 °F 53.6 °F 30.16 in Calm   5.0 mph 61% 0.00 in
14:37 67.6 °F 54.1 °F 30.16 in Calm   3.0 mph 62% 0.00 in
14:38 67.9 °F 54.4 °F 30.16 in WNW 1.0 mph 4.0 mph 62% 0.00 in
14:41 68.4 °F 54.4 °F 30.16 in West 2.0 mph 4.0 mph 61% 0.00 in
14:43 68.6 °F 54.6 °F 30.16 in West 6.0 mph 7.0 mph 61% 0.00 in
14:46 68.5 °F 54.1 °F 30.16 in SW 2.0 mph 7.0 mph 60% 0.00 in
14:48 68.5 °F 54.1 °F 30.16 in SSE 2.0 mph 3.0 mph 60% 0.00 in
14:51 68.7 °F 54.3 °F 30.16 in SSE 1.0 mph 3.0 mph 60% 0.00 in
14:53 68.9 °F 54.5 °F 30.16 in SW 1.0 mph 2.0 mph 60% 0.00 in
14:54 68.9 °F 54.5 °F 30.16 in SSW 1.0 mph 2.0 mph 60% 0.00 in
14:55 69.0 °F 55.5 °F 30.16 in SE 1.0 mph 2.0 mph 62% 0.00 in
14:56 69.1 °F 54.2 °F 30.16 in WNW 3.0 mph 4.0 mph 59% 0.00 in
14:58 68.9 °F 54.5 °F 30.15 in West 2.0 mph 5.0 mph 60% 0.00 in
15:00 68.8 °F 54.4 °F 30.15 in SW 4.0 mph 4.0 mph 60% 0.00 in
15:02 68.7 °F 54.3 °F 30.15 in West 3.0 mph 4.0 mph 60% 0.00 in
15:05 68.5 °F 54.1 °F 30.15 in SW 4.0 mph 6.0 mph 60% 0.00 in
15:06 68.4 °F 54.0 °F 30.15 in SSW 1.0 mph 6.0 mph 60% 0.00 in
15:07 68.4 °F 54.4 °F 30.15 in SW 2.0 mph 6.0 mph 61% 0.00 in
15:10 68.3 °F 53.9 °F 30.15 in WSW 1.0 mph 3.0 mph 60% 0.00 in
15:12 68.4 °F 54.0 °F 30.15 in WNW 2.0 mph 2.0 mph 60% 0.00 in
15:16 68.3 °F 53.9 °F 30.14 in SW 2.0 mph 4.0 mph 60% 0.00 in
15:17 68.3 °F 54.3 °F 30.14 in Calm   3.0 mph 61% 0.00 in
15:18 68.4 °F 54.0 °F 30.14 in SSW 1.0 mph 3.0 mph 60% 0.00 in
15:21 68.5 °F 53.6 °F 30.14 in Calm   3.0 mph 59% 0.00 in
15:23 68.6 °F 54.2 °F 30.14 in Calm   1.0 mph 60% 0.00 in
15:24 68.7 °F 54.3 °F 30.14 in West 1.0 mph 1.0 mph 60% 0.00 in
15:27 68.7 °F 54.3 °F 30.14 in Calm   3.0 mph 60% 0.00 in
15:28 68.7 °F 53.8 °F 30.14 in South 2.0 mph 3.0 mph 59% 0.00 in
15:32 68.7 °F 54.3 °F 30.14 in Calm   2.0 mph 60% 0.00 in
15:33 69.0 °F 55.0 °F 30.14 in WSW 2.0 mph 2.0 mph 61% 0.00 in
15:34 69.2 °F 55.2 °F 30.14 in West 1.0 mph 2.0 mph 61% 0.00 in
15:37 69.5 °F 54.6 °F 30.14 in ESE 1.0 mph 3.0 mph 59% 0.00 in
15:38 69.4 °F 54.5 °F 30.14 in ESE 1.0 mph 3.0 mph 59% 0.00 in
15:39 69.2 °F 54.3 °F 30.14 in East 5.0 mph 5.0 mph 59% 0.00 in
15:43 69.0 °F 54.5 °F 30.13 in ENE 1.0 mph 4.0 mph 60% 0.00 in
15:44 69.0 °F 54.1 °F 30.13 in NNE 1.0 mph 2.0 mph 59% 0.00 in
15:45 69.1 °F 54.7 °F 30.13 in NNE 1.0 mph 2.0 mph 60% 0.00 in
15:49 69.4 °F 55.8 °F 30.13 in SE 1.0 mph 1.0 mph 62% 0.00 in
15:50 69.5 °F 55.0 °F 30.13 in SSE 2.0 mph 2.0 mph 60% 0.00 in
15:51 69.7 °F 55.2 °F 30.13 in ESE 4.0 mph 4.0 mph 60% 0.00 in
15:55 69.4 °F 55.4 °F 30.13 in South 3.0 mph 4.0 mph 61% 0.00 in
15:57 69.3 °F 54.4 °F 30.13 in SE 2.0 mph 4.0 mph 59% 0.00 in
16:00 69.1 °F 54.7 °F 30.13 in ESE 3.0 mph 4.0 mph 60% 0.00 in
16:02 68.9 °F 54.5 °F 30.13 in SSE 2.0 mph 4.0 mph 60% 0.00 in
16:05 68.8 °F 55.3 °F 30.13 in East 2.0 mph 4.0 mph 62% 0.00 in
16:07 68.8 °F 54.4 °F 30.13 in East 2.0 mph 4.0 mph 60% 0.00 in
16:10 68.7 °F 54.7 °F 30.13 in ENE 2.0 mph 3.0 mph 61% 0.00 in
16:11 68.7 °F 54.7 °F 30.13 in ENE 2.0 mph 3.0 mph 61% 0.00 in
16:13 68.7 °F 54.3 °F 30.13 in East 2.0 mph 4.0 mph 60% 0.00 in
16:16 68.6 °F 55.1 °F 30.13 in East 2.0 mph 3.0 mph 62% 0.00 in
16:21 68.6 °F 54.6 °F 30.13 in East 4.0 mph 6.0 mph 61% 0.00 in
16:22 68.6 °F 54.6 °F 30.13 in East 4.0 mph 6.0 mph 61% 0.00 in
16:26 68.8 °F 54.8 °F 30.13 in ESE 4.0 mph 11.0 mph 61% 0.00 in
16:27 68.8 °F 54.8 °F 30.13 in SSE 4.0 mph 11.0 mph 61% 0.00 in
16:28 68.9 °F 55.4 °F 30.13 in ESE 3.0 mph 11.0 mph 62% 0.00 in
16:29 69.0 °F 55.5 °F 30.13 in South 4.0 mph 8.0 mph 62% 0.00 in
16:32 69.7 °F 56.1 °F 30.13 in WSW 2.0 mph 4.0 mph 62% 0.00 in
16:34 69.9 °F 54.9 °F 30.13 in South 3.0 mph 3.0 mph 59% 0.00 in
16:37 70.1 °F 54.7 °F 30.13 in SSE 2.0 mph 6.0 mph 58% 0.00 in
16:38 70.1 °F 55.1 °F 30.13 in Calm   6.0 mph 59% 0.00 in
16:39 70.1 °F 55.1 °F 30.13 in SE 1.0 mph 4.0 mph 59% 0.00 in
16:44 69.7 °F 54.3 °F 30.13 in Calm   6.0 mph 58% 0.00 in
16:49 69.5 °F 55.0 °F 30.13 in SSE 3.0 mph 3.0 mph 60% 0.00 in
16:50 69.5 °F 55.5 °F 30.12 in South 6.0 mph 6.0 mph 61% 0.00 in
16:55 69.2 °F 54.7 °F 30.12 in SSE 4.0 mph 5.0 mph 60% 0.00 in
16:56 69.1 °F 55.1 °F 30.13 in SSE 5.0 mph 5.0 mph 61% 0.00 in
16:58 68.9 °F 54.9 °F 30.13 in SE 4.0 mph 7.0 mph 61% 0.00 in
17:00 68.8 °F 55.3 °F 30.13 in South 3.0 mph 7.0 mph 62% 0.00 in
17:01 68.7 °F 54.7 °F 30.13 in SSW 3.0 mph 6.0 mph 61% 0.00 in
17:06 68.5 °F 55.0 °F 30.13 in SSE 3.0 mph 4.0 mph 62% 0.00 in
17:08 68.4 °F 54.4 °F 30.13 in SSE 4.0 mph 5.0 mph 61% 0.00 in
17:12 68.3 °F 54.8 °F 30.13 in SSE 3.0 mph 4.0 mph 62% 0.00 in
17:14 68.3 °F 54.8 °F 30.13 in SSE 4.0 mph 4.0 mph 62% 0.00 in
17:17 68.2 °F 55.1 °F 30.13 in SSE 3.0 mph 6.0 mph 63% 0.00 in
17:19 68.1 °F 54.6 °F 30.13 in SE 2.0 mph 4.0 mph 62% 0.00 in
17:24 68.0 °F 54.5 °F 30.13 in SSE 2.0 mph 4.0 mph 62% 0.00 in
17:28 68.1 °F 55.0 °F 30.13 in SE 2.0 mph 3.0 mph 63% 0.00 in
17:29 68.1 °F 55.0 °F 30.13 in SSE 3.0 mph 3.0 mph 63% 0.00 in
17:30 68.1 °F 54.6 °F 30.13 in SE 2.0 mph 3.0 mph 62% 0.00 in
17:31 68.1 °F 55.0 °F 30.13 in SE 2.0 mph 3.0 mph 63% 0.00 in
17:35 68.2 °F 54.7 °F 30.12 in SW 2.0 mph 2.0 mph 62% 0.00 in
17:36 68.2 °F 54.7 °F 30.12 in SW 2.0 mph 2.0 mph 62% 0.00 in
17:41 68.3 °F 54.8 °F 30.12 in SSE 2.0 mph 3.0 mph 62% 0.00 in
17:46 68.4 °F 54.9 °F 30.12 in SSW 1.0 mph 1.0 mph 62% 0.00 in
17:47 68.6 °F 55.1 °F 30.12 in Calm   1.0 mph 62% 0.00 in
17:51 68.9 °F 54.9 °F 30.12 in SW 1.0 mph 2.0 mph 61% 0.00 in
17:52 69.0 °F 55.0 °F 30.12 in South 1.0 mph 2.0 mph 61% 0.00 in
17:53 69.0 °F 55.0 °F 30.12 in Calm   2.0 mph 61% 0.00 in
17:56 69.1 °F 55.1 °F 30.12 in SSE 2.0 mph 2.0 mph 61% 0.00 in
17:57 69.1 °F 54.7 °F 30.12 in Calm   2.0 mph 60% 0.00 in
17:58 69.1 °F 54.7 °F 30.12 in Calm   2.0 mph 60% 0.00 in
18:02 69.2 °F 55.2 °F 30.12 in SSW 1.0 mph 1.0 mph 61% 0.00 in
18:03 69.2 °F 55.6 °F 30.12 in WSW 1.0 mph 2.0 mph 62% 0.00 in
18:07 69.0 °F 55.0 °F 30.12 in West 2.0 mph 2.0 mph 61% 0.00 in
18:08 68.9 °F 54.9 °F 30.12 in West 1.0 mph 2.0 mph 61% 0.00 in
18:13 68.6 °F 55.1 °F 30.12 in West 1.0 mph 2.0 mph 62% 0.00 in
18:14 68.5 °F 54.5 °F 30.12 in West 1.0 mph 2.0 mph 61% 0.00 in
18:18 68.4 °F 54.4 °F 30.12 in West 1.0 mph 2.0 mph 61% 0.00 in
18:23 68.3 °F 54.8 °F 30.12 in WSW 1.0 mph 1.0 mph 62% 0.00 in
18:28 68.2 °F 54.2 °F 30.12 in WSW 2.0 mph 3.0 mph 61% 0.00 in
18:29 68.2 °F 54.2 °F 30.12 in WSW 1.0 mph 3.0 mph 61% 0.00 in
18:30 68.2 °F 54.7 °F 30.12 in West 1.0 mph 3.0 mph 62% 0.00 in
18:33 68.1 °F 55.0 °F 30.12 in West 1.0 mph 2.0 mph 63% 0.00 in
18:34 68.1 °F 55.0 °F 30.12 in West 1.0 mph 2.0 mph 63% 0.00 in
18:35 68.1 °F 55.0 °F 30.12 in West 1.0 mph 1.0 mph 63% 0.00 in
18:37 68.0 °F 55.0 °F 30.12 in West 1.0 mph 1.0 mph 63% 0.00 in
18:39 67.9 °F 54.8 °F 30.12 in West 1.0 mph 1.0 mph 63% 0.00 in
18:42 67.8 °F 54.8 °F 30.12 in Calm   1.0 mph 63% 0.00 in
18:44 67.7 °F 55.1 °F 30.12 in West 1.0 mph 1.0 mph 64% 0.00 in
18:48 67.6 °F 54.1 °F 30.12 in Calm   1.0 mph 62% 0.00 in
18:49 67.6 °F 54.6 °F 30.12 in West 1.0 mph 1.0 mph 63% 0.00 in
18:53 67.6 °F 55.0 °F 30.12 in WSW 1.0 mph 1.0 mph 64% 0.00 in
18:54 67.5 °F 54.9 °F 30.12 in WSW 1.0 mph 1.0 mph 64% 0.00 in
18:55 67.5 °F 54.9 °F 30.12 in WSW 1.0 mph 1.0 mph 64% 0.00 in
18:57 67.4 °F 54.8 °F 30.12 in WSW 1.0 mph 2.0 mph 64% 0.00 in
18:58 67.4 °F 54.8 °F 30.12 in WSW 2.0 mph 2.0 mph 64% 0.00 in
19:03 67.1 °F 55.0 °F 30.12 in SW 4.0 mph 4.0 mph 65% 0.00 in
19:08 66.7 °F 55.4 °F 30.12 in SSW 2.0 mph 5.0 mph 67% 0.00 in
19:13 66.3 °F 55.4 °F 30.13 in SSW 3.0 mph 3.0 mph 68% 0.00 in
19:14 66.2 °F 55.3 °F 30.13 in SW 2.0 mph 3.0 mph 68% 0.00 in
19:18 66.0 °F 55.2 °F 30.13 in SSW 2.0 mph 3.0 mph 68% 0.00 in
19:20 66.1 °F 55.2 °F 30.13 in South 1.0 mph 3.0 mph 68% 0.00 in
19:23 66.0 °F 55.5 °F 30.13 in SSW 1.0 mph 2.0 mph 69% 0.00 in
19:24 66.0 °F 55.5 °F 30.13 in SSW 1.0 mph 2.0 mph 69% 0.00 in
19:29 65.8 °F 55.4 °F 30.13 in Calm   1.0 mph 69% 0.00 in
19:30 65.7 °F 55.7 °F 30.13 in Calm   1.0 mph 70% 0.00 in
19:31 65.7 °F 55.7 °F 30.13 in Calm   1.0 mph 70% 0.00 in
19:34 65.5 °F 55.5 °F 30.13 in Calm     70% 0.00 in
19:36 65.4 °F 55.4 °F 30.13 in Calm     70% 0.00 in
19:39 65.3 °F 55.3 °F 30.14 in Calm   1.0 mph 70% 0.00 in
19:40 65.3 °F 55.3 °F 30.14 in Calm   1.0 mph 70% 0.00 in
19:41 65.3 °F 55.3 °F 30.13 in SSE 1.0 mph 1.0 mph 70% 0.00 in
19:43 65.2 °F 55.2 °F 30.13 in SSE 1.0 mph 1.0 mph 70% 0.00 in
19:48 65.1 °F 55.5 °F 30.14 in SE 1.0 mph 2.0 mph 71% 0.00 in
19:53 64.8 °F 55.6 °F 30.13 in Calm   1.0 mph 72% 0.00 in
19:55 64.6 °F 55.4 °F 30.14 in SE 1.0 mph 1.0 mph 72% 0.00 in
19:58 64.6 °F 55.4 °F 30.14 in SE 1.0 mph 1.0 mph 72% 0.00 in
20:01 64.6 °F 55.4 °F 30.14 in SE 1.0 mph 1.0 mph 72% 0.00 in
20:02 64.6 °F 55.8 °F 30.14 in SE 1.0 mph 1.0 mph 73% 0.00 in
20:03 64.5 °F 55.7 °F 30.14 in SE 1.0 mph 1.0 mph 73% 0.00 in
20:07 64.3 °F 56.2 °F 30.14 in SE 1.0 mph 1.0 mph 75% 0.00 in
20:09 64.0 °F 55.9 °F 30.14 in SE 1.0 mph 1.0 mph 75% 0.00 in
20:10 63.9 °F 56.2 °F 30.14 in SE 1.0 mph 1.0 mph 76% 0.00 in
20:12 63.7 °F 56.0 °F 30.14 in SSE 1.0 mph 1.0 mph 76% 0.00 in
20:14 63.7 °F 55.6 °F 30.14 in SSE 1.0 mph 1.0 mph 75% 0.00 in
20:17 63.7 °F 55.6 °F 30.14 in Calm   1.0 mph 75% 0.00 in
20:19 63.7 °F 55.6 °F 30.14 in Calm   1.0 mph 75% 0.00 in
20:20 63.7 °F 55.6 °F 30.14 in Calm     75% 0.00 in
20:22 63.6 °F 55.9 °F 30.14 in Calm     76% 0.00 in
20:24 63.5 °F 56.2 °F 30.14 in Calm     77% 0.00 in
20:25 63.3 °F 56.0 °F 30.14 in NW 2.0 mph 2.0 mph 77% 0.00 in
20:28 63.0 °F 55.7 °F 30.14 in NW 3.0 mph 3.0 mph 77% 0.00 in
20:29 63.0 °F 55.3 °F 30.14 in NW 2.0 mph 3.0 mph 76% 0.00 in
20:33 63.3 °F 55.6 °F 30.14 in NW 2.0 mph 3.0 mph 76% 0.00 in
20:34 63.4 °F 55.7 °F 30.14 in WNW 2.0 mph 3.0 mph 76% 0.00 in
20:35 63.5 °F 55.4 °F 30.15 in WNW 2.0 mph 4.0 mph 75% 0.00 in
20:39 64.0 °F 55.2 °F 30.15 in West 1.0 mph 2.0 mph 73% 0.00 in
20:41 64.1 °F 55.3 °F 30.15 in West 1.0 mph 2.0 mph 73% 0.00 in
20:42 64.3 °F 55.5 °F 30.15 in West 1.0 mph 1.0 mph 73% 0.00 in
20:47 64.5 °F 55.3 °F 30.15 in Calm   1.0 mph 72% 0.00 in
20:52 64.3 °F 55.5 °F 30.15 in Calm     73% 0.00 in
20:53 64.3 °F 55.5 °F 30.15 in Calm     73% 0.00 in
20:57 64.2 °F 55.4 °F 30.15 in Calm     73% 0.00 in
20:58 64.2 °F 55.4 °F 30.15 in Calm     73% 0.00 in
20:59 64.2 °F 55.4 °F 30.15 in SW 1.0 mph 1.0 mph 73% 0.00 in
21:03 64.5 °F 55.3 °F 30.15 in WNW 1.0 mph 2.0 mph 72% 0.00 in
21:04 64.6 °F 55.4 °F 30.15 in WNW 1.0 mph 1.0 mph 72% 0.00 in
21:08 64.5 °F 55.3 °F 30.15 in WNW 1.0 mph 1.0 mph 72% 0.00 in
21:09 64.5 °F 55.3 °F 30.15 in NNW 2.0 mph 2.0 mph 72% 0.00 in
21:14 63.9 °F 55.8 °F 30.15 in NE 2.0 mph 4.0 mph 75% 0.00 in
21:19 62.9 °F 55.9 °F 30.15 in NE 2.0 mph 3.0 mph 78% 0.00 in
21:20 62.8 °F 55.8 °F 30.15 in NE 3.0 mph 4.0 mph 78% 0.00 in
21:24 62.5 °F 56.2 °F 30.15 in North 5.0 mph 5.0 mph 80% 0.00 in
21:25 62.5 °F 56.2 °F 30.15 in NNE 4.0 mph 5.0 mph 80% 0.00 in
21:26 62.4 °F 55.8 °F 30.15 in NNE 8.0 mph 9.0 mph 79% 0.00 in
21:30 61.9 °F 54.3 °F 30.15 in NNE 9.0 mph 11.0 mph 76% 0.00 in
21:31 61.9 °F 54.3 °F 30.15 in North 9.0 mph 11.0 mph 76% 0.00 in
21:32 61.8 °F 54.2 °F 30.15 in NNE 7.0 mph 11.0 mph 76% 0.00 in
21:35 61.5 °F 53.2 °F 30.15 in NE 8.0 mph 9.0 mph 74% 0.00 in
21:36 61.4 °F 52.7 °F 30.15 in NNE 9.0 mph 11.0 mph 73% 0.00 in
21:37 61.3 °F 52.2 °F 30.15 in ENE 4.0 mph 11.0 mph 72% 0.00 in
21:41 60.9 °F 51.8 °F 30.15 in NE 8.0 mph 11.0 mph 72% 0.00 in
21:42 60.9 °F 52.2 °F 30.15 in NNE 6.0 mph 11.0 mph 73% 0.00 in
21:46 60.5 °F 52.2 °F 30.14 in ENE 5.0 mph 9.0 mph 74% 0.00 in
21:51 60.1 °F 51.8 °F 30.14 in NE 5.0 mph 11.0 mph 74% 0.00 in
21:52 60.1 °F 51.8 °F 30.14 in NNE 8.0 mph 11.0 mph 74% 0.00 in
21:56 59.9 °F 52.0 °F 30.15 in NE 5.0 mph 9.0 mph 75% 0.00 in
21:57 59.9 °F 52.0 °F 30.15 in NE 8.0 mph 9.0 mph 75% 0.00 in
21:58 59.8 °F 51.9 °F 30.15 in NNE 4.0 mph 8.0 mph 75% 0.00 in
22:02 59.6 °F 52.0 °F 30.15 in NE 4.0 mph 8.0 mph 76% 0.00 in
22:04 59.6 °F 52.0 °F 30.15 in NE 8.0 mph 8.0 mph 76% 0.00 in
22:07 59.4 °F 51.5 °F 30.15 in ENE 3.0 mph 9.0 mph 75% 0.00 in
22:09 59.2 °F 50.9 °F 30.15 in NE 7.0 mph 7.0 mph 74% 0.00 in
22:14 59.0 °F 50.7 °F 30.15 in ENE 3.0 mph 6.0 mph 74% 0.00 in
22:19 58.7 °F 50.5 °F 30.15 in NNE 4.0 mph 6.0 mph 74% 0.00 in
22:20 58.6 °F 50.3 °F 30.15 in NE 3.0 mph 6.0 mph 74% 0.00 in
22:24 58.5 °F 49.9 °F 30.16 in NE 3.0 mph 8.0 mph 73% 0.00 in
22:26 58.4 °F 49.8 °F 30.16 in NNE 4.0 mph 7.0 mph 73% 0.00 in
22:29 58.3 °F 49.7 °F 30.15 in NNE 4.0 mph 7.0 mph 73% 0.00 in
22:35 58.2 °F 49.6 °F 30.15 in NNE 3.0 mph 7.0 mph 73% 0.00 in
22:36 58.1 °F 49.5 °F 30.16 in NNE 5.0 mph 7.0 mph 73% 0.00 in
22:38 58.0 °F 49.4 °F 30.16 in NE 7.0 mph 7.0 mph 73% 0.00 in
22:40 57.9 °F 49.3 °F 30.16 in NNE 4.0 mph 7.0 mph 73% 0.00 in
22:43 57.9 °F 48.9 °F 30.16 in NE 6.0 mph 8.0 mph 72% 0.00 in
22:48 57.9 °F 48.9 °F 30.15 in NE 8.0 mph 8.0 mph 72% 0.00 in
22:49 57.9 °F 48.9 °F 30.15 in NE 7.0 mph 8.0 mph 72% 0.00 in
22:51 57.8 °F 48.8 °F 30.15 in NE 5.0 mph 8.0 mph 72% 0.00 in
22:54 57.8 °F 48.8 °F 30.15 in NE 4.0 mph 9.0 mph 72% 0.00 in
22:57 57.7 °F 48.8 °F 30.15 in NE 3.0 mph 8.0 mph 72% 0.00 in
22:59 57.6 °F 48.7 °F 30.15 in NE 3.0 mph 7.0 mph 72% 0.00 in
23:04 57.4 °F 48.5 °F 30.15 in NE 6.0 mph 7.0 mph 72% 0.00 in
23:06 57.4 °F 48.5 °F 30.15 in NE 2.0 mph 7.0 mph 72% 0.00 in
23:09 57.3 °F 48.7 °F 30.15 in NE 2.0 mph 5.0 mph 73% 0.00 in
23:10 57.3 °F 48.7 °F 30.15 in NE 2.0 mph 5.0 mph 73% 0.00 in
23:11 57.2 °F 48.6 °F 30.15 in NE 4.0 mph 6.0 mph 73% 0.00 in
23:14 57.2 °F 48.6 °F 30.15 in NE 5.0 mph 6.0 mph 73% 0.00 in
23:15 57.2 °F 48.6 °F 30.15 in NNE 4.0 mph 6.0 mph 73% 0.00 in
23:16 57.1 °F 48.5 °F 30.16 in NE 5.0 mph 6.0 mph 73% 0.00 in
23:19 57.1 °F 48.5 °F 30.16 in NE 5.0 mph 6.0 mph 73% 0.00 in
23:20 57.1 °F 48.5 °F 30.16 in NE 6.0 mph 6.0 mph 73% 0.00 in
23:22 57.1 °F 48.5 °F 30.15 in NNE 2.0 mph 6.0 mph 73% 0.00 in
23:25 57.0 °F 48.1 °F 30.16 in NNE 3.0 mph 7.0 mph 72% 0.00 in
23:27 57.0 °F 48.4 °F 30.16 in NE 3.0 mph 7.0 mph 73% 0.00 in
23:30 57.0 °F 48.1 °F 30.16 in NNE 4.0 mph 6.0 mph 72% 0.00 in
23:33 57.0 °F 48.1 °F 30.16 in NNE 3.0 mph 6.0 mph 72% 0.00 in
23:36 56.9 °F 48.0 °F 30.16 in NE 3.0 mph 6.0 mph 72% 0.00 in
23:38 56.9 °F 48.0 °F 30.16 in NE 3.0 mph 6.0 mph 72% 0.00 in
23:41 56.9 °F 48.0 °F 30.16 in ENE 4.0 mph 7.0 mph 72% 0.00 in
23:42 56.9 °F 48.0 °F 30.16 in NE 4.0 mph 6.0 mph 72% 0.00 in
23:43 56.9 °F 48.0 °F 30.16 in NE 4.0 mph 6.0 mph 72% 0.00 in
23:46 56.8 °F 47.9 °F 30.16 in East 2.0 mph 6.0 mph 72% 0.00 in
23:48 56.8 °F 47.9 °F 30.16 in NE 6.0 mph 6.0 mph 72% 0.00 in
23:52 56.8 °F 47.9 °F 30.16 in NE 2.0 mph 5.0 mph 72% 0.00 in
23:53 56.8 °F 47.9 °F 30.16 in NE 2.0 mph 5.0 mph 72% 0.00 in
23:54 56.8 °F 47.9 °F 30.16 in NE 4.0 mph 5.0 mph 72% 0.00 in
23:58 56.7 °F 47.8 °F 30.16 in NE 2.0 mph 5.0 mph 72% 0.00 in
Compliments of Weather Underground